{"data":{"norad_id":64238,"epoch":"2026-05-25T04:46:39.380160Z","epoch_age_seconds":51056,"freshness":"FRESH","line1":"1 64238U 25119F   26145.19906690  .00188920  00000+0  14381-2 0  9995","line2":"2 64238  43.0006 108.2986 0001453 265.9325  94.1376 15.70914341 57273","mean_motion":15.70914341,"eccentricity":0.0001453,"inclination_deg":43.0006,"raan_deg":108.2986,"arg_perigee_deg":265.9325,"mean_anomaly_deg":94.1376,"bstar":0.0014381,"rev_number":5727,"period_min":91.666360311113,"perigee_km":355.30407829052,"apogee_km":357.26110062322,"semimajor_km":6734.4195894569,"source":"CELESTRAK","updated_at":"2026-05-25T13:38:20.351766Z"}}